Niagara Falls, NY

3:49 AM EDT on May 23, 2017 (GMT -0400)
Niagara Falls International

Weather History for KIAG - December, 2012

Change the Weather History Date:

Wednesday, December 12, 2012

  Actual Average Record
Temperature  
Mean Temperature 34 °F -  
Max Temperature 39 °F 37 °F 55 °F (1991)
Min Temperature 27 °F 24 °F 3 °F (2005)
Degree Days  
Heating Degree Days 32    
Moisture  
Dew Point 26 °F    
Average Humidity 74    
Maximum Humidity 89    
Minimum Humidity 64    
Precipitation  
Precipitation 0.00 in - - ()
Sea Level Pressure  
Sea Level Pressure 30.34 in    
Wind  
Wind Speed 10 mph (WSW)    
Max Wind Speed 21 mph    
Max Gust Speed 28 mph    
Visibility 10 miles    
Events Rain , Snow    
Averages and records for this station are not official NWS values.
T = Trace of Precipitation, MM = Missing Value Source: NWS Daily Summary

Daily Weather History Graph

Daily Weather History Graph

Search for Another Location

Airport or City:

Trip Planner

Search our weather history database for the weather conditions in past years. The results will help you decide how hot, cold, wet, or windy it might be!

Date:

Astronomy

Dec. 12, 2012 Rise Set
Actual Time 7:38 AM EST 4:40 PM EST
Civil Twilight 7:06 AM EST 5:13 PM EST
Nautical Twilight 6:30 AM EST 5:49 PM EST
Astronomical Twilight 5:55 AM EST 6:23 PM EST
Moon 6:40 AM EST (12/12) 4:16 PM EST (12/12)
Length of Visible Light 10h 07m
Length of Day
9h 02m
Waning Crescent, 1% of the Moon is Illuminated
Dec 12
Waning Crescent
Dec 13
New
Dec 20
First Quarter
Dec 28
Full
Jan 4
Last Quarter

Hourly Weather History & Observations

Time (EST) Temp. Windchill Dew Point Humidity Pressure Visibility Wind Dir Wind Speed Gust Speed Precip Events Conditions
12:53 AM 30.9 °F 27.5 °F 26.1 °F 82% 30.20 in 10.0 mi WSW 3.5 mph - N/A   Overcast
1:53 AM 32.0 °F 24.2 °F 25.0 °F 75% 30.22 in 10.0 mi WNW 9.2 mph - 0.00 in   Overcast
2:53 AM 32.0 °F 24.2 °F 23.0 °F 69% 30.24 in 10.0 mi West 9.2 mph - 0.00 in   Overcast
3:53 AM 32.0 °F 23.6 °F 21.9 °F 66% 30.25 in 10.0 mi WSW 10.4 mph - N/A   Mostly Cloudy
4:53 AM 30.0 °F 19.5 °F 21.0 °F 69% 30.26 in 10.0 mi West 13.8 mph - N/A   Partly Cloudy
5:53 AM 30.9 °F 20.2 °F 21.0 °F 67% 30.28 in 10.0 mi West 15.0 mph - N/A   Clear
6:53 AM 30.9 °F 22.2 °F 21.0 °F 67% 30.30 in 10.0 mi WSW 10.4 mph - N/A   Clear
7:03 AM 30.2 °F 20.8 °F 19.4 °F 64% 30.26 in 10.0 mi WSW 11.5 mph - N/A   Scattered Clouds
7:53 AM 30.0 °F 21.7 °F 21.0 °F 69% 30.32 in 10.0 mi WSW 9.2 mph - N/A   Scattered Clouds
8:53 AM 33.1 °F 27.7 °F 25.0 °F 72% 30.32 in 10.0 mi SW 5.8 mph - N/A   Scattered Clouds
9:53 AM 35.1 °F 26.4 °F 26.1 °F 70% 30.34 in 10.0 mi WSW 12.7 mph - N/A   Scattered Clouds
10:53 AM 37.0 °F 28.5 °F 28.0 °F 70% 30.35 in 10.0 mi SW 13.8 mph - N/A   Scattered Clouds
11:53 AM 37.9 °F 28.9 °F 28.9 °F 70% 30.35 in 10.0 mi SW 16.1 mph - N/A   Mostly Cloudy
12:53 PM 39.0 °F 29.3 °F 30.0 °F 70% 30.35 in 10.0 mi SW 19.6 mph 27.6 mph N/A   Mostly Cloudy
1:00 PM 39.2 °F 30.8 °F 30.2 °F 70% 30.31 in 10.0 mi WSW 15.0 mph 25.3 mph N/A   Mostly Cloudy
1:18 PM 37.4 °F 26.9 °F 28.4 °F 70% 30.32 in 7.0 mi WSW 20.7 mph 26.5 mph 0.00 in Rain , Snow Light Rain
1:43 PM 37.4 °F 28.2 °F 30.2 °F 75% 30.32 in 10.0 mi WSW 16.1 mph - 0.00 in   Mostly Cloudy
1:53 PM 39.9 °F 30.8 °F 30.9 °F 70% 30.36 in 10.0 mi WSW 18.4 mph 24.2 mph 0.00 in   Mostly Cloudy
2:53 PM 37.9 °F 31.5 °F 30.9 °F 76% 30.37 in 10.0 mi SW 9.2 mph 19.6 mph N/A   Mostly Cloudy
3:53 PM 39.0 °F 31.0 °F 30.9 °F 73% 30.37 in 10.0 mi SW 13.8 mph 21.9 mph N/A   Mostly Cloudy
4:53 PM 37.9 °F 31.5 °F 30.0 °F 73% 30.39 in 10.0 mi SW 9.2 mph - N/A   Mostly Cloudy
5:53 PM 36.0 °F 28.5 °F 28.9 °F 76% 30.40 in 10.0 mi WSW 10.4 mph - N/A   Scattered Clouds
6:53 PM 36.0 °F 30.3 °F 30.0 °F 79% 30.40 in 10.0 mi WSW 6.9 mph - N/A   Mostly Cloudy
7:53 PM 33.1 °F 28.7 °F 28.0 °F 82% 30.42 in 10.0 mi WSW 4.6 mph - N/A   Partly Cloudy
8:53 PM 33.1 °F 28.7 °F 28.0 °F 82% 30.43 in 10.0 mi SW 4.6 mph - N/A   Clear
9:53 PM 30.9 °F 27.5 °F 26.1 °F 82% 30.42 in 10.0 mi SSW 3.5 mph - N/A   Clear
10:53 PM 28.0 °F - 25.0 °F 88% 30.43 in 10.0 mi Calm Calm - N/A   Clear
11:53 PM 27.0 °F - 24.1 °F 89% 30.45 in 5.0 mi Calm Calm - N/A   Clear